Kuchera_Ratio
0.0 0.0 0.0 0.0 0.0 0.0 0.0 0.0 0.0 0.0 0.0 0.0 0.0 0.0 0.0 0.0 0.0 0.0 0.0 0.0 0.0 0.0
0.0 0.0 0.0 0.0 0.0 0.0 0.0 0.0 0.0 0.0 0.0 0.0 0.0 0.0 0.0 0.0 0.0 0.0 0.0 0.0 0.0 0.0
0.0 0.0 0.0 0.0 0.0 0.0 0.0 0.0 0.0 0.0 0.0 0.0 0.0 0.0 0.0 0.0 0.0 0.0 0.0 0.0 0.0 0.0
0.0 0.0 0.0 0.0 0.0 0.0 0.0 0.0 0.0 0.0 0.0 0.0 0.0 0.0 0.0 0.0 0.0 0.0 0.0 0.0 0.0 0.0
0.0 0.0 0.0 0.0 0.0 0.0 0.0 0.0 0.0 0.0 0.0 0.0 0.0 0.0 0.0 0.0 0.0 0.0 0.0 0.0 0.0 0.0
0.0 0.0 0.0 0.0 0.0 0.0 0.0 0.0 0.0 0.0 0.0 0.0 0.0 0.0 0.0 0.0 0.0 0.3 0.5 0.9 1.6 1.7
0.0 0.0 0.0 0.0 0.0 0.0 0.0 0.0 0.0 0.0 0.0 0.0 0.0 0.0 0.3 1.4 1.6 2.3 2.9 3.4 4.7 5.1
0.0 0.0 0.0 0.0 0.0 0.0 0.0 0.0 0.0 0.0 0.0 0.0 0.0 0.5 1.7 2.9 3.5 3.8 4.5 5.5 5.1 5.1
0.0 0.0 0.0 0.0 0.0 0.0 0.0 0.0 0.0 0.0 0.0 1.7 1.3 2.3 3.1 3.7 4.7 5.0 5.9 6.6 7.6 6.3
0.0 0.0 0.0 0.0 0.0 0.0 0.0 0.9 1.9 2.1 2.3 3.9 4.3 2.3 3.5 4.5 6.1 6.8 7.7 8.6 9.3 8.9
0.0 0.0 0.0 0.0 0.0 0.0 0.1 0.5 2.4 3.4 4.5 5.7 4.7 2.7 3.5 4.5 7.1 7.5 8.1 8.1 8.1 9.9
0.0 0.0 0.0 0.0 0.0 0.0 0.5 2.2 3.3 3.4 3.1 5.3 5.3 3.1 3.5 5.3 7.3 7.9 8.5 8.9 12.3 7.9
0.0 0.0 0.0 0.0 0.0 0.0 0.4 0.3 1.5 2.7 4.3 3.9 5.0 2.9 2.7 3.7 7.3 8.5 8.9 8.3 12.4 9.1
0.0 0.0 0.0 0.0 0.0 0.5 1.3 1.1 2.3 2.0 4.1 4.8 4.6 5.7 2.9 2.3 8.2 9.3 9.3 11.5 12.0 11.6